Abilene Dyess, TX

4:41 PM CDT on September 21, 2017 (GMT -0500)
Dyess Air Force Base

Weather History for KDYS - October, 2012

Change the Weather History Date:

Tuesday, October 9, 2012

  Actual Average Record
Temperature  
Mean Temperature 70 °F -  
Max Temperature 85 °F 77 °F 93 °F (1997)
Min Temperature 57 °F 57 °F 44 °F (2000)
Cooling Degree Days 6    
Growing Degree Days 20 (Base 50)    
Moisture  
Dew Point 55 °F    
Average Humidity 63    
Maximum Humidity 81    
Minimum Humidity 37    
Precipitation  
Precipitation 0.00 in - - ()
Sea Level Pressure  
Sea Level Pressure 29.88 in    
Wind  
Wind Speed 15 mph (South)    
Max Wind Speed 21 mph    
Max Gust Speed 30 mph    
Visibility 10 miles    
Events      
Averages and records for this station are not official NWS values.
T = Trace of Precipitation, MM = Missing Value Source: NWS Daily Summary

Daily Weather History Graph

Daily Weather History Graph

Search for Another Location

Airport or City:

Trip Planner

Search our weather history database for the weather conditions in past years. The results will help you decide how hot, cold, wet, or windy it might be!

Date:

Astronomy

Oct. 09, 2012 Rise Set
Actual Time 7:39 AM CDT 7:13 PM CDT
Civil Twilight 7:14 AM CDT 7:37 PM CDT
Nautical Twilight 6:46 AM CDT 8:06 PM CDT
Astronomical Twilight 6:17 AM CDT 8:34 PM CDT
Moon 1:37 AM CDT (10/9) 3:23 PM CDT (10/9)
Length of Visible Light 12h 23m
Length of Day
11h 33m
Last Quarter, 36% of the Moon is Illuminated
Oct 9
Last Quarter
Oct 15
New
Oct 21
First Quarter
Oct 29
Full
Nov 6
Last Quarter

Hourly Weather History & Observations

Time (CDT) Temp. Heat Index Dew Point Humidity Pressure Visibility Wind Dir Wind Speed Gust Speed Precip Events Conditions
12:55 AM 58.8 °F - 50.9 °F 75% 29.94 in 10.0 mi SSE 18.4 mph 29.9 mph N/A   Clear
1:55 AM 59.4 °F - 52.0 °F 77% 29.91 in 10.0 mi South 17.3 mph 24.2 mph N/A   Clear
2:55 AM 59.4 °F - 51.8 °F 76% 29.91 in 10.0 mi SSW 11.5 mph 23.0 mph N/A   Clear
3:55 AM 58.8 °F - 51.8 °F 77% 29.88 in 10.0 mi South 12.7 mph - N/A   Clear
4:55 AM 57.9 °F - 51.6 °F 80% 29.88 in 10.0 mi South 15.0 mph 20.7 mph N/A   Clear
5:55 AM 57.7 °F - 51.4 °F 79% 29.89 in 10.0 mi SSW 12.7 mph - N/A   Clear
6:55 AM 57.4 °F - 51.4 °F 81% 29.90 in 10.0 mi SSW 13.8 mph - N/A   Clear
7:55 AM 57.2 °F - 51.4 °F 81% 29.90 in 10.0 mi SSW 17.3 mph 24.2 mph N/A   Clear
8:55 AM 60.1 °F - 52.0 °F 75% 29.91 in 10.0 mi SSW 18.4 mph 25.3 mph N/A   Clear
9:55 AM 63.7 °F - 53.1 °F 68% 29.92 in 10.0 mi SSW 20.7 mph 27.6 mph N/A   Clear
10:55 AM 66.6 °F - 54.1 °F 64% 29.92 in 10.0 mi South 12.7 mph 20.7 mph N/A   Clear
11:55 AM 71.1 °F - 55.4 °F 58% 29.91 in 10.0 mi SSW 12.7 mph 20.7 mph N/A   Clear
12:55 PM 75.2 °F - 56.1 °F 51% 29.88 in 10.0 mi SSW 18.4 mph 24.2 mph N/A   Clear
1:16 PM 77.0 °F - 57.2 °F 50% 29.87 in 7.0 mi SSW 16.1 mph 25.3 mph N/A   Light Drizzle
1:25 PM 77.0 °F - 57.2 °F 50% 29.86 in 9.0 mi South 17.3 mph - N/A   Clear
1:55 PM 78.4 °F - 55.9 °F 46% 29.85 in 10.0 mi SSW 16.1 mph - 0.00 in   Clear
2:55 PM 82.2 °F 81.8 °F 56.3 °F 41% 29.83 in 10.0 mi SSW 15.0 mph 19.6 mph N/A   Clear
3:55 PM 84.6 °F 83.5 °F 56.5 °F 38% 29.82 in 10.0 mi SW 13.8 mph - N/A   Clear
4:55 PM 84.6 °F 83.7 °F 56.8 °F 39% 29.81 in 10.0 mi SSW 12.7 mph - N/A   Clear
5:55 PM 84.6 °F 83.4 °F 55.6 °F 37% 29.80 in 10.0 mi SSW 13.8 mph - N/A   Clear
6:55 PM 78.4 °F - 58.5 °F 50% 29.82 in 10.0 mi SSE 6.9 mph - N/A   Clear
7:55 PM 72.5 °F - 59.7 °F 64% 29.84 in 10.0 mi SSE 9.2 mph - N/A   Clear
8:55 PM 69.3 °F - 59.0 °F 70% 29.86 in 10.0 mi SSE 8.1 mph - N/A   Clear
9:55 PM 69.4 °F - 58.5 °F 68% 29.90 in 10.0 mi NE 6.9 mph - N/A   Clear
10:55 PM 68.4 °F - 58.6 °F 71% 29.91 in 10.0 mi SSE 5.8 mph - N/A   Clear
11:55 PM 65.8 °F - 58.3 °F 77% 29.94 in 10.0 mi ENE 6.9 mph - N/A   Clear